Location: Paderno d�Adda
(45.6667°N, 9.4333°E)
Time: 04:55:56
(UTC+00:00)

Cosmos 1125 Rocket - Pass Details

Date: 20 January 2021
Orbit: 757 x 781 km, 74.0° (Epoch: 05 March)

Event Time Altitude Azimuth Distance (km) Brightness Sun altitude
Rises 05:53:15 0° 341° (NNW) 3,263 6.4 -10.9°
Reaches altitude 10° 05:55:40 10° 344° (NNW) 2,335 5.7 -10.5°
Maximum altitude 06:00:56 62° 66° (ENE) 874 4.0 -9.6°
Drops below altitude 10° 06:06:11 10° 147° (SSE) 2,328 6.9 -8.7°
Sets 06:08:35 0° 151° (SSE) 3,252 7.6 -8.3°
